This is the latest recevied weather packets stored in our database for station/object N2WH. If no packets are shown the sender has not sent any weather packets the latest 10 day(s).
| Time | Temp. | Humidity | Pressure | Rain* | Wind** | Luminosity | Snow |
|---|---|---|---|---|---|---|---|
| 1777507112 | 10.56° C | 85% | 1011.7 hPa | 0 mm | - | 0 W/m² | - |
| 1777506810 | 10.56° C | 85% | 1011.6 hPa | 0 mm | - | 0 W/m² | - |
| 1777506506 | 10.56° C | 85% | 1011.5 hPa | 0 mm | - | 0 W/m² | - |
| 1777506201 | 10.56° C | 84% | 1011.4 hPa | 0 mm | - | 0 W/m² | - |
| 1777505898 | 10.56° C | 83% | 1011.5 hPa | 0 mm | - | 0 W/m² | - |
| 1777505594 | 10.56° C | 82% | 1011.6 hPa | 0 mm | - | 1 W/m² | - |
| 1777505291 | 10.56° C | 81% | 1011.5 hPa | 0 mm | - | 2 W/m² | - |
| 1777504988 | 11.11° C | 81% | 1011.7 hPa | 0 mm | - | 3 W/m² | - |
| 1777504685 | 11.11° C | 81% | 1011.8 hPa | 0 mm | - | 5 W/m² | - |
| 1777504382 | 11.11° C | 81% | 1011.8 hPa | 0 mm | - | 3 W/m² | - |
| 1777504076 | 11.11° C | 81% | 1011.6 hPa | 0 mm | - | 6 W/m² | - |
| 1777503773 | 11.11° C | 81% | 1011.5 hPa | 0 mm | - | 5 W/m² | - |
| 1777503470 | 11.11° C | 81% | 1011.5 hPa | 0 mm | - | 10 W/m² | - |
| 1777503165 | 11.11° C | 80% | 1011.4 hPa | 0 mm | - | 17 W/m² | - |
| 1777502863 | 11.11° C | 80% | 1011.5 hPa | 0 mm | - | 16 W/m² | - |
| 1777502561 | 11.11° C | 79% | 1011.5 hPa | 0 mm | - | 16 W/m² | - |
| 1777502257 | 11.67° C | 78% | 1011.5 hPa | 0 mm | - | 10 W/m² | - |
| 1777501954 | 11.67° C | 77% | 1011.5 hPa | 0 mm | - | 14 W/m² | - |
| 1777501651 | 11.67° C | 77% | 1011.4 hPa | 0 mm | - | 32 W/m² | - |
| 1777501348 | 11.67° C | 75% | 1011.7 hPa | 0 mm | - | 12 W/m² | - |
| 1777501046 | 12.22° C | 75% | 1011.6 hPa | 0 mm | - | 10 W/m² | - |
| 1777500744 | 12.22° C | 74% | 1011.8 hPa | 0 mm | - | 31 W/m² | - |
| 1777500440 | 12.22° C | 73% | 1011.7 hPa | 0 mm | - | 35 W/m² | - |
| 1777500136 | 12.78° C | 72% | 1011.7 hPa | 0 mm | - | 34 W/m² | - |
| 1777499834 | 12.78° C | 70% | 1011.8 hPa | 0 mm | - | 41 W/m² | - |
* Rain latest hour (hover to see other rain measurements)
** Current wind speed in m/s (hover to see current wind gust speed)